Volver al catálogo

STARLINK-2633

ActivoComunicacionesVLEO
NORAD 48435·PAYLOAD·🇺🇸 United States

Lanzado May 9, 2021 desde Cape Canaveral Space Force Station

Loading…

Próximos Pases (próximas 24 horas)

TLE

ActualizadoSource: CelesTrak SupGP

Época: Sep 14, 2026, 21:42 UTC

1 48435C 21040H   26257.90465278 -.00019560  00000+0 -62887-3 0  2577
2 48435  53.1602   4.7046 0001406  78.4458   1.2448 15.31718595    16

Sigue STARLINK-2633 en tiempo real con AllMySat

Download on the App Store